www.pogodaiklimat.ru

Погода и климат >> Архив погоды >> Россия >> Приморский край >> Тимирязевский


АРХИВ ПОГОДЫ в Тимирязевском

Время (UTC), дата Ветер
(напр.,м/с)
 
Видим.   Явления Облачность Т
(С)
Тd
(С)
f
(%)
Тe
(С)
Тes
(С)
Комфортность P
(гПа)
Po
(гПа)
Тmin
(С)
Tmax
(С)
R
(мм)
R24
(мм)
S
(см)
12 11.08 Ю 5
{10}
10 км {ливн. осадки} 10/10 300 м
[Cb cap]
+17.5 +16.9 96 +17 +17 1010.4 1006.3
15 11.08 Ю 4 4000 м слаб. ливневой дождь 10/10 300 м
[Cb cap]
+17.0 +16.7 98 +16 +16 1009.7 1005.6
18 11.08 Ю 4 4000 м слаб. ливневой дождь 10/10 300 м
[Cb cap]
+16.7 +16.4 98 +16 +16 1008.6 1004.4
21 11.08 Ю 4 10 км {ливн. осадки} 10/10 300 м
[Sc diur, vesp]
+16.9 +16.5 97 +16 +16 1007.5 1003.4 +16.5 18
00 12.08 Ю 3 4000 м ливневой дождь 10/10 300 м
[Cb cap]
+17.3 +16.9 97 +17 +17 1008.6 1004.5
03 12.08 Ю 4 10 км слаб. ливневой дождь 10/10 300 м
[Cb cap]
+19.2 +18.3 95 +21 +21 комфорт 1007.9 1003.8
06 12.08 Ю 3 20 км слаб. ливневой дождь 10/10 300 м
[Cb cap]
+19.6 +18.6 94 +22 +22 комфорт 1007.8 1003.7
09 12.08 Ю 3 20 км {ливн. осадки} 9/9 300 м
[Sc diur, vesp]
+19.8 +18.6 93 +23 +23 комфорт 1007.6 1003.5 +20.1 4
12 12.08 Ю 3 20 км {ливн. осадки} 8/8 300 м
[Sc diur, vesp]
+19.2 +18.3 95 +21 +21 комфорт 1008.4 1004.3
15 12.08 Ю 3 20 км 10/10 300 м
[St]
+19.0 +18.4 96 +21 +21 комфорт 1008.5 1004.4
18 12.08 ЮВ 1 20 км 10/10 300 м
[St]
+18.7 +18.3 98 +21 +21 комфорт 1008.8 1004.7
21 12.08 штиль 0 10 км 8/8 300 м
[St]
+18.3 +17.9 98 +19 +19 1009.4 1005.3 +18.1
00 13.08 СВ 1 10 км 10/6 300 м
[St Ac trans]
+20.6 +19.0 91 +26 +28 душно 1009.2 1005.1
03 13.08 З 1 20 км 10/4 300 м
[St Ac trans]
+22.6 +19.7 84 +29 +34 очень
душно
1009.5 1005.4
06 13.08 Ю 2 20 км 10/3 600 м
[Sc As trans]
+23.6 +19.7 79 +29 +32 душно 1008.6 1004.6
09 13.08 Ю 1 20 км слаб. дождь 10/8 300 м
[Frnb As op]
+21.2 +19.9 92 +26 +26 душно 1008.7 1004.6 +24.6 0.0
12 13.08 Ю 1 10 км слаб. дождь 10/8 300 м
[Frnb As op]
+19.8 +19.4 98 +24 +24 комфорт 1009.4 1005.3
15 13.08 Ю 1 10 км слаб. дождь 10/9 300 м
[Frnb As op]
+19.5 +19.2 98 +23 +23 комфорт 1009.0 1004.9
18 13.08 Ю 1 10 км слаб. дождь 10/9 300 м
[Frnb As op]
+18.9 +18.6 98 +22 +22 комфорт 1008.0 1003.9
21 13.08 Ю 3 4000 м слаб. морось {дождь} 10/10 300 м
[St]
+18.9 +18.6 98 +21 +21 комфорт 1007.1 1003.0 +18.8 3
00 14.08 Ю 4 50 км {дождь, морось} 10/10 300 м
[St]
+19.6 +18.9 96 +22 +22 комфорт 1006.9 1002.8
03 14.08 Ю 5
{12}
50 км {морось} 10/10 300 м
[Cb cap]
+21.1 +18.2 84 +25 +25 комфорт 1006.3 1002.2
06 14.08 Ю 4
{12}
50 км 10/4 600 м
[Sc diur, vesp Ci fib]
+22.3 +17.7 75 +27 +31 душно 1005.6 1001.5
09 14.08 Ю 4
{12}
50 км 10/6 300 м
[Sc diur, vesp Ci fib]
+20.3 +17.2 82 +24 +24 комфорт 1005.0 1000.9 +23.3 0.0
12 14.08 Ю 3 50 км 10/6 300 м
[St Ci fib]
+19.4 +17.0 86 +22 +22 комфорт 1005.3 1001.2
15 14.08 Ю 2 50 км 10/8 300 м
[St Ci fib]
+18.8 +16.9 89 +21 +21 комфорт 1005.1 1001.0
18 14.08 Ю 2 50 км 10/8 300 м
[St Ci fib]
+18.3 +15.8 85 +19 +19 1004.7 1000.6
21 14.08 Ю 2 20 км 8/4 300 м
[St Ci fib]
+18.2 +16.6 90 +19 +19 1003.9 999.8 +18.0
00 15.08 Ю 3 20 км 10/10 1000 м
[Sc]
+20.6 +18.1 86 +25 +25 комфорт 1003.5 999.4
03 15.08 Ю 2 20 км слаб. ливневой дождь 10/10 600 м
[Cb cap]
+22.0 +18.8 82 +27 +27 душно 1002.5 998.4
06 15.08 СВ 2 4000 м ливневой дождь 10/10 600 м
[Cb cap]
+21.2 +20.2 94 +26 +26 душно 1001.1 997.1
09 15.08 СВ 2 4000 м ливневой дождь 10/10 600 м
[Cb cap]
+20.7 +20.4 98 +26 +26 душно 999.5 995.5 +22.1 11
12 15.08 С 3 4000 м ливневой дождь 10/10 300 м
[Cb cap]
+20.6 +20.3 98 +25 +25 комфорт 998.0 994.0
15 15.08 СВ 3 10 км слаб. ливневой дождь 10/10 600 м
[Cb cap]
+19.9 +19.5 98 +23 +23 комфорт 995.8 991.8
18 15.08 С 1 10 км слаб. ливневой дождь 10/10 600 м
[Cb cap]
+19.3 +19.0 98 +23 +23 комфорт 994.2 990.2
21 15.08 С 3 10 км слаб. ливневой дождь 10/8 600 м
[Cb cap Ci fib]
+19.2 +18.8 98 +21 +21 комфорт 992.8 988.7 +19.0 25
00 16.08 СЗ 3 10 км слаб. ливневой дождь 10/10 600 м
[Cb cap]
+20.4 +20.0 98 +25 +25 комфорт 991.9 987.9
03 16.08 С 3 4000 м слаб. ливневой дождь 10/10 600 м
[Cb cap]
+20.5 +20.2 98 +25 +25 комфорт 991.8 987.8
06 16.08 С 2 4000 м слаб. ливневой дождь 10/10 300 м
[Cb cap]
+21.7 +21.4 98 +28 +28 душно 990.4 986.4
09 16.08 СЗ 2 4000 м слаб. ливневой дождь 10/10 300 м
[Cb cap]
+21.2 +20.9 98 +27 +27 душно 990.8 986.8 +21.8 27
12 16.08 штиль 0 10 км слаб. ливневой дождь 10/10 300 м
[Cb cap]
+20.8 +20.5 98 +25 +25 комфорт 991.9 987.8
15 16.08 Ю 1 10 км {ливн. осадки} 10/10 300 м
[Sc diur, vesp]
+20.6 +20.3 98 +26 +26 душно 992.3 988.3
18 16.08 Ю 2 10 км {ливн. осадки} 10/10 300 м
[Sc diur, vesp]
+20.8 +20.5 98 +26 +26 душно 992.3 988.3
21 16.08 Ю 4 10 км 10/10 300 м
[St]
+20.6 +20.2 98 +25 +25 комфорт 993.5 989.5 +20.4 12
00 17.08 Ю 4 20 км 10/10 300 м
[St]
+21.8 +20.6 93 +28 +28 душно 994.1 990.1
03 17.08 Ю 7-12
{12}
20 км 10/10 300 м
[St]
+21.7 +19.7 88 +27 +27 душно 995.3 991.3
06 17.08 Ю 6-10
{13}
50 км 8/8 300 м
[Cb cap]
+21.1 +18.7 86 +25 +26 комфорт 995.8 991.7
09 17.08 Ю 4
{13}
50 км 4/4 300 м
[Cb cap]
+20.9 +18.5 86 +25 +26 комфорт 996.6 992.6 +22.7
12 17.08 Ю 4
{11}
50 км 4/4 300 м
[St]
+19.2 +17.8 92 +21 +21 комфорт 999.4 995.4
15 17.08 Ю 3 50 км 8/8 300 м
[Cb cap]
+18.7 +17.5 93 +20 +20 1000.8 996.7
18 17.08 Ю 2 50 км 3/3 300 м
[Sc diur, vesp]
+18.2 +17.3 94 +19 +19 1002.0 997.9
21 17.08 Ю 4 20 км 8/8 600 м
[Cb cap]
+18.7 +17.9 95 +20 +20 1002.9 998.8 +18.1
00 18.08 Ю 3 50 км в посл. час ливневой дождь 10/8 300 м
[Cb cap Ac trans Ci fib]
+19.7 +18.8 95 +23 +23 комфорт 1004.5 1000.5
03 18.08 Ю 4 50 км 8/8 300 м
[Sc diur, vesp]
+21.6 +18.9 85 +26 +29 душно 1005.2 1001.1
06 18.08 Ю 6-12
{12}
20 км 4/4 600 м
[Cb cap]
+22.9 +18.8 78 +29 +31 очень
душно
1005.1 1001.0

 

Местоположение метеостанции Тимирязевский (Приморский край, Россия): широта 43.88 долгота 131.90 высота над уровнем моря 36 м.

В архиве по умолчанию представлена погода в Тимирязевском за последнюю неделю. Архивные данные за месяц целиком и за предыдущие месяцы, начиная с января 2011 года, Вы можете получить, выбрав интересующий диапазон дат из раскрывающегося списка и нажав кнопку "Ввод!".


*Определитесь, кто Вы:
робот инопланетянин человек

Внимание! Время в таблицах - всемирное. Для получения местного времени необходимо прибавить поправку, которая равна 10 ч.

Смотрите также архив погоды в соседних городах и на ближайших метеорологических станциях:

Погода в Полтавке (Приморский край, Россия) (51 км)
Погода в Хороле (Приморский край, Россия) (62 км)
Погода в Многоудобном (Приморский край, Россия) (65 км)
Погода в Пограничном (Приморский край, Россия) (75 км)
Погода в Суйфэньхэ (Хэйлунцзян, Китай) (82 км)
Погода в Владивостоке (Приморский край, Россия) (85 км)
Погода в Барабаше (Приморский край, Россия) (86 км)
Погода в Анучино (Приморский край, Россия) (89 км)
Погода на Мысе Назимова (Приморский край, Россия) (92 км)
Погода в Астраханке (Приморский край, Россия) (94 км)

Пояснения к столбцам:

Ветер - указаны скорость ветра в м/с - средняя за 10 мин, порывы в срок и между сроками (в фигурных скобках) и направление, откуда дует ветер: С - северный, СВ - северо-восточный, В - восточный, ЮВ - юго-восточный, Ю - южный, ЮЗ - юго-западный, З - западный, СЗ - северо-западный.
Видимость - горизонтальная дальность видимости в метрах или километрах. При видимости от 1 до 10 км при отсутствии осадков обычно наблюдается дымка, при ухудшении видимости до 1 км и менее - туман. В сухую погоду видимость может ухудшаться дымом, пылью или мглою.
Явления - указаны атмосферные явления, наблюдавшиеся в срок или в последний час перед сроком; фигурными скобками обозначены явления, наблюдавшиеся между сроками (за 1-3 часа до срока); квадратными скобками обозначены град или гололедные отложения с указанием их диаметра в мм.
Облачность - указаны через наклонную черту общая и нижняя облачность в баллах и высота нижней границы облаков в метрах; квадратными скобками обозначены формы облаков: Ci - перистые, Cs - перисто-слоистые, Cc - перисто-кучевые, Ac - высококучевые, As - высокослоистые, Sc - слоисто-кучевые, Ns - слоисто-дождевые, Cu - кучевые, Cb - кучево-дождевые. Подробнее классификацию облаков см. в Атласе облаков (PDF).
T - Температура воздуха - температура, измеренная на высоте 2 м над землей.
Td - Температура точки росы - температура, при понижении до которой содержащийся в воздухе водяной пар достигнет насыщения.
f - Относительная влажность воздуха - влажноcть воздуха, измеренная на высоте 2 м над землей.
Te - Эффективная температура - температура, которую ощущает одетый по сезону человек в тени. Характеристика душности погоды. При расчете учитывается влияние влажности воздуха и скорости ветра на теплоощущения человека.
Tes - Эффективная температура на солнце - температура, которую ощущает человек, с поправкой на солнечный нагрев. Характеристика знойности погоды. Зависит от высоты солнца над горизонтом, облачности и скорости ветра. Ночью, в пасмурную погоду, а также при ветре 12 м/с и более поправка равна нулю.
P - Атмосферное давление - приведенное к уровню моря атмосферное давление.
Po - Атмосферное давление - измеренное на уровне метеостанции атмосферное давление.
Tmin - Минимальная температура - минимум температуры воздуха на высоте 2 м над землей.
Tmax - Максимальная температура - максимум температуры воздуха на высоте 2 м над землей.
R - Количество осадков - Количество выпавших осадков за период времени, мм. При наведении курсора мыши на число - период времени, за который выпало указанное количество осадков.
R24 - Количество осадков - Количество выпавших осадков за 24 часа, мм.
S - Снежный покров - Высота снежного покрова, см. При наведении курсора мыши на число - состояние снежного покрова и степень покрытия местности в баллах.